sat.trackr.live / text

‹ back to catalog

STARLINK-2521

NORAD 48648 · 2021-044L

PAYLOAD ACTIVE UNKNOWN

§ Identity

Operator
Country
US
Launch date
2021-05-26
Launch site
AFETR
Launch vehicle
Mass (kg)
RCS (m²)

Purposes: comms

External: N2YO · Heavens-Above · Gunter

§ Orbital elements

Epoch: 2026-05-25T02:12:56.408256Z

Period
94.01 min
Inclination
53.1599°
Eccentricity
0.0001099
Mean motion
15.31700139 rev/d
Perigee alt
470.0 km
Apogee alt
471.5 km
Semi-major
6,848.9 km
B*
1.8241e-5
RAAN
118.6514°
Arg perigee
101.1014°
Mean anomaly
259.0111°
Rev number
27,553

§ Raw data

STARLINK-25211 48648U 21044L   26145.09231954  .00000201  00000+0  18241-4 0  99942 48648  53.1599 118.6514 0001099 101.1014 259.0111 15.31700139275538

JSON: /api/v1/satellites/48648 · /tle

For live sub-satellite position, see the globe view (requires WebGL).

§ Visibility from observer

Set your observer location to see the next 7 days of passes ≥ 10°. The values pass through the URL so the page stays shareable.

No JS? Fill the form by hand. The geolocation button needs JavaScript.